Date String (YYYY-MM-DD hh:mm:ss) UTC,Instrument flags,absolute air pressure of the measurement (hPa),sample flow rate (lpm),inlet stack bypass flow (lpm),air temperature of the measurement (°C),ambient temperature measured by the external sensor (°C),aerosol sample conditioner tube jacket temperature (°C),OPC LED temperature (°C),internal box temperature (°C),relative humidity of the measurement (%),span deviation,mass concentration of particles derived from Lorenz-Mie calculation of OPC scattering (μg/m³),mass concentration of particles derived from Lorenz-Mie calculation of OPC scattering (μg/m³),mass concentration of particles derived from Lorenz-Mie calculation of OPC scattering (μg/m³)
DateTimeUTC,F1_M11,P_M11,Q1_M11,Q2_M11,T1_M11,T2_M11,T3_M11,T4_M11,T5_M11,U1_M11,ZSPAN_M11,X0_M11,X2_M11,X1_M11
2024-06-15 20:00:00,SystemResetWarning,0824.4,4.99,000.00,028.8,027.5,000.0,037.1,030.5,018.3,0003.5,0016.15,0006.72,0005.46
2024-06-15 20:01:00,SystemResetWarning,0824.4,5.00,000.00,028.9,027.8,000.0,037.1,030.6,019.6,0002.9,0016.81,0006.71,0005.49
2024-06-15 20:02:00,SystemResetWarning,0824.4,5.00,000.00,028.9,028.1,000.0,037.1,030.8,019.5,0002.6,0016.83,0006.66,0005.51
2024-06-15 20:03:00,SystemResetWarning,0824.4,5.00,000.00,029.0,028.3,000.0,037.1,030.9,019.2,0002.7,0017.22,0006.64,0005.53
2024-06-15 20:04:00,SystemResetWarning,0824.4,5.00,000.00,029.1,028.5,000.0,037.1,031.0,019.1,0002.7,0017.74,0006.65,0005.54
2024-06-15 20:05:00,SystemResetWarning,0824.3,5.00,000.00,029.2,028.7,000.0,037.2,031.1,018.7,0002.4,0017.62,0006.59,0005.53
2024-06-15 20:06:00,SystemResetWarning,0824.3,5.00,000.00,029.3,028.5,000.0,037.2,031.0,018.4,0002.6,0017.31,0006.53,0005.53
2024-06-15 20:07:00,SystemResetWarning,0824.2,4.98,000.00,029.0,026.4,000.0,037.3,029.9,018.0,0002.6,0016.60,0006.55,0005.54
2024-06-15 20:08:00,SystemResetWarning,0824.1,5.03,000.00,028.6,025.5,000.0,037.3,029.4,018.7,0002.3,0015.89,0006.53,0005.55
2024-06-15 20:09:00,SystemResetWarning,0824.2,4.99,000.00,028.6,026.1,000.0,037.3,029.6,018.3,0001.7,0016.10,0006.50,0005.55
2024-06-15 20:10:00,SystemResetWarning,0824.1,4.99,000.00,028.6,026.5,000.0,037.2,029.9,018.8,0001.6,0017.74,0006.48,0005.55
2024-06-15 20:11:00,SystemResetWarning,0824.1,5.00,000.00,028.6,027.0,000.0,037.1,030.1,018.6,0001.9,0017.62,0006.47,0005.55
2024-06-15 20:12:00,SystemResetWarning,0824.1,4.99,000.00,028.7,027.3,000.0,037.1,030.3,019.0,0002.1,0017.44,0006.49,0005.57
2024-06-15 20:13:00,SystemResetWarning,0824.1,5.00,000.00,028.8,027.7,000.0,037.0,030.5,019.8,0002.1,0017.82,0006.59,0005.58
2024-06-15 20:14:00,SystemResetWarning,0824.2,5.00,000.00,028.9,028.0,000.0,037.0,030.7,020.1,0002.1,0018.00,0006.61,0005.58
2024-06-15 20:15:00,SystemResetWarning,0824.3,5.01,000.00,029.0,028.2,000.0,037.1,030.8,019.6,0002.1,0016.98,0006.59,0005.59
2024-06-15 20:16:00,SystemResetWarning,0824.3,5.01,000.00,029.1,028.5,000.0,037.1,030.9,018.3,0002.4,0017.27,0006.62,0005.61
2024-06-15 20:17:00,SystemResetWarning,0824.3,4.99,000.00,029.2,028.7,000.0,037.1,031.1,017.7,0001.7,0017.84,0006.65,0005.62
2024-06-15 20:18:00,SystemResetWarning,0824.3,5.00,000.00,029.3,028.8,000.0,037.2,031.2,018.7,0001.6,0017.94,0006.68,0005.63
2024-06-15 20:19:00,SystemResetWarning,0824.3,4.99,000.00,029.3,028.2,000.0,037.3,030.8,019.0,0001.5,0017.94,0006.71,0005.64
2024-06-15 20:20:00,SystemResetWarning,0824.2,5.00,000.00,029.0,026.1,000.0,037.3,029.8,019.8,0002.2,0017.04,0006.69,0005.63
2024-06-15 20:21:00,SystemResetWarning,0824.2,5.02,000.00,028.7,025.6,000.0,037.3,029.5,019.8,0002.6,0016.62,0006.75,0005.64
2024-06-15 20:22:00,SystemResetWarning,0824.1,5.00,000.00,028.6,026.2,000.0,037.2,029.7,021.2,0002.6,0016.47,0006.75,0005.63
2024-06-15 20:23:00,SystemResetWarning,0824.1,5.00,000.00,028.6,026.6,000.0,037.1,029.9,020.8,0002.5,0017.70,0006.81,0005.60
2024-06-15 20:24:00,SystemResetWarning,0824.1,5.00,000.00,028.7,027.1,000.0,037.1,030.2,019.3,0002.7,0018.48,0006.77,0005.57
2024-06-15 20:25:00,SystemResetWarning,0824.1,5.00,000.00,028.7,027.5,000.0,037.1,030.4,019.4,0002.7,0019.24,0006.76,0005.56
2024-06-15 20:26:00,SystemResetWarning,0824.1,5.00,000.00,028.8,027.8,000.0,037.1,030.6,021.0,0003.1,0019.59,0006.80,0005.54
2024-06-15 20:27:00,SystemResetWarning,0824.2,5.01,000.00,028.9,028.1,000.0,037.1,030.7,020.9,0001.7,0020.34,0006.84,0005.53
2024-06-15 20:28:00,SystemResetWarning,0824.1,5.00,000.00,029.0,028.4,000.0,037.1,030.9,020.3,0000.0,0020.34,0006.88,0005.52
2024-06-15 20:29:00,SystemResetWarning,0824.1,5.00,000.00,029.1,028.6,000.0,037.1,031.0,019.4,0000.0,0020.74,0006.86,0005.50
2024-06-15 20:30:00,SystemResetWarning,0824.1,5.00,000.00,029.2,028.7,000.0,037.2,031.1,019.3,0000.0,0020.75,0006.83,0005.49
2024-06-15 20:31:00,SystemResetWarning,0824.2,4.99,000.00,029.3,028.9,000.0,037.2,031.2,020.1,0000.0,0021.08,0006.83,0005.50
2024-06-15 20:32:00,SystemResetWarning,0824.0,4.99,000.00,029.3,027.9,000.0,037.3,030.7,019.7,0000.0,0020.09,0006.81,0005.49
2024-06-15 20:33:00,SystemResetWarning,0824.0,5.01,000.00,028.9,025.8,000.0,037.4,029.7,019.5,0000.0,0019.60,0006.76,0005.50
2024-06-15 20:34:00,SystemResetWarning,0824.0,5.02,000.00,028.6,025.9,000.0,037.3,029.6,019.1,0000.7,0018.10,0006.65,0005.51
2024-06-15 20:35:00,SystemResetWarning,0824.0,4.99,000.00,028.6,026.5,000.0,037.3,029.9,019.3,0001.4,0018.52,0006.63,0005.51
2024-06-15 20:36:00,SystemResetWarning,0824.1,5.00,000.00,028.7,026.9,000.0,037.2,030.1,020.0,0000.9,0017.65,0006.65,0005.50
2024-06-15 20:37:00,SystemResetWarning,0824.2,5.00,000.00,028.7,027.3,000.0,037.1,030.3,020.0,0000.3,0017.75,0006.71,0005.51
2024-06-15 20:38:00,SystemResetWarning,0824.1,5.01,000.00,028.8,027.7,000.0,037.1,030.5,018.6,0000.1,0016.66,0006.69,0005.51
2024-06-15 20:39:00,SystemResetWarning,0824.0,5.00,000.00,028.9,028.0,000.0,037.1,030.7,013.6,0001.6,0016.54,0006.63,0005.49
2024-06-15 20:40:00,SystemResetWarning,0823.9,5.00,000.00,029.0,028.3,000.0,037.1,030.8,012.9,0000.0,0017.03,0006.54,0005.42
2024-06-15 20:41:00,SystemResetWarning,0824.0,5.01,000.00,029.1,028.5,000.0,037.2,030.9,013.0,0000.0,0017.13,0006.40,0005.31
2024-06-15 20:42:00,SystemResetWarning,0824.1,4.99,000.00,029.2,028.7,000.0,037.2,031.1,018.2,0000.0,0017.07,0006.26,0005.22
2024-06-15 20:43:00,SystemResetWarning,0824.0,5.00,000.00,029.3,028.8,000.0,037.3,031.1,019.9,0000.0,0017.09,0006.20,0005.18
2024-06-15 20:44:00,SystemResetWarning,0824.0,4.99,000.00,029.2,027.2,000.0,037.3,030.4,019.5,0000.0,0018.07,0006.24,0005.17
2024-06-15 20:45:00,SystemResetWarning,0823.9,5.00,000.00,028.8,025.7,000.0,037.3,029.6,019.1,0000.0,0019.14,0006.29,0005.15
2024-06-15 20:46:00,SystemResetWarning,0823.9,5.01,000.00,028.7,026.1,000.0,037.3,029.7,020.9,0000.0,0018.77,0006.33,0005.13
2024-06-15 20:47:00,SystemResetWarning,0824.0,5.01,000.00,028.7,026.6,000.0,037.2,030.0,021.6,0000.0,0018.88,0006.33,0005.14
2024-06-15 20:48:00,SystemResetWarning,0824.0,5.00,000.00,028.7,027.0,000.0,037.2,030.2,021.4,0000.0,0021.85,0006.25,0005.12
2024-06-15 20:49:00,SystemResetWarning,0824.0,5.00,000.00,028.8,027.4,000.0,037.1,030.4,020.0,0000.0,0023.13,0006.25,0005.13
2024-06-15 20:50:00,SystemResetWarning,0824.0,4.99,000.00,028.8,027.7,000.0,037.1,030.6,019.6,0000.0,0023.22,0006.36,0005.15
2024-06-15 20:51:00,SystemResetWarning,0824.0,5.00,000.00,028.9,028.1,000.0,037.1,030.7,020.1,0000.0,0023.91,0006.45,0005.25
2024-06-15 20:52:00,SystemResetWarning,0824.0,5.00,000.00,029.0,028.3,000.0,037.1,030.9,019.1,0000.0,0024.32,0006.65,0005.37
2024-06-15 20:53:00,SystemResetWarning,0823.9,5.00,000.00,029.1,028.5,000.0,037.2,031.0,019.7,0000.0,0024.75,0006.80,0005.48
2024-06-15 20:54:00,SystemResetWarning,0823.9,5.00,000.00,029.2,028.7,000.0,037.2,031.1,019.8,0000.0,0025.12,0006.87,0005.55
2024-06-15 20:55:00,SystemResetWarning,0823.9,4.99,000.00,029.3,028.6,000.0,037.3,031.0,020.2,0000.0,0024.84,0006.89,0005.58
2024-06-15 20:56:00,SystemResetWarning,0823.8,4.99,000.00,029.1,026.6,000.0,037.3,030.0,020.4,0000.0,0025.07,0006.91,0005.61
2024-06-15 20:57:00,SystemResetWarning,0823.8,5.02,000.00,028.7,025.5,000.0,037.3,029.4,021.9,0000.0,0024.97,0006.98,0005.68
2024-06-15 20:58:00,SystemResetWarning,0823.8,5.00,000.00,028.6,026.1,000.0,037.3,029.7,021.2,0000.0,0026.16,0007.04,0005.72
2024-06-15 20:59:00,SystemResetWarning,0823.8,5.00,000.00,028.6,026.5,000.0,037.2,029.9,022.2,0000.6,0023.09,0007.03,0005.74
